Regional Weather Roundup
Issued by NWS

Home | Current Version | Previous Version | Graphics & Text | Print | Product List | Glossary On
Versions: 1 2 3 4 5 6 7 8 9 10 11 12 13 14 15 16 17 18 19 20 21 22 23 24 25 26 27 28 29 30 31 32 33 34 35 36 37 38 39 40 41 42 43 44 45 46 47 48 49 50
000
ASUS43 KTOP 072059
RWRKS

WEATHER ROUNDUP FOR KANSAS
NATIONAL WEATHER SERVICE GOODLAND KS
300 PM CST WED DEC 07 2016

NOTE:  "FAIR" INDICATES FEW OR NO CLOUDS BELOW 12,000 FEET WITH NO
SIGNIFICANT WEATHER AND/OR OBSTRUCTIONS TO VISIBILITY.

KSZ001>006-013>018-027>032-041>047-072200-
NORTHWEST KANSAS

CITY           SKY/WX    TMP DP  RH WIND       PRES   REMARKS
GOODLAND       LGT SNOW  16   9  74 N13       30.28R WCI   2
HILL CITY      PTSUNNY   22  13  68 N8        30.36R
RUSSELL        CLOUDY    25  17  72 N12       30.33R WCI  14
$$

KSZ061>065-074>080-084>089-072200-
SOUTHWEST KANSAS

CITY           SKY/WX    TMP DP  RH WIND       PRES   REMARKS
DODGE CITY     CLOUDY    23  18  81 N17       30.28R WCI   9
ELKHART          N/A     21   8  57 N12         N/A  WCI   9
GREAT BEND     FLURRIES  25  19  80 N17       30.32R WCI  11
$$

KSZ066>073-081>083-090>101-072200-
SOUTHEAST KANSAS

CITY           SKY/WX    TMP DP  RH WIND       PRES   REMARKS
CHANUTE        LGT SNOW  29  25  85 N13G22    30.30R FOG     WCI  19
COFFEYVILLE    CLOUDY    36  20  52 N15       30.28R WCI  27
HUTCHINSON     CLOUDY    27  21  78 N13       30.32R WCI  16
MEDICINE LODGE   N/A     32  19  58 NE20G26   30.27R WCI  20
PARSONS        CLOUDY    32  23  69 N10G20    30.30R WCI  24
WICHITA INTL   FLURRIES  31  23  72 N21       30.30R WCI  18
WINFIELD       CLOUDY    34  17  50 NE17      30.28R WCI  23
$$

KSZ007>012-019>026-033>040-048>060-102>105-072200-
NORTHEAST KANSAS

CITY           SKY/WX    TMP DP  RH WIND       PRES   REMARKS
EMPORIA        LGT SNOW  27  24  89 N14       30.32R FOG     WCI  16
LAWRENCE       CLOUDY    26  20  77 NW13      30.35R WCI  15
MANHATTAN      PTSUNNY   28  16  60 N8        30.35S
OLATHE IND     LGT SNOW  25  21  85 N13       30.33R FOG     WCI  14
OLATHE EXE     LGT SNOW  25  21  85 NW10      30.31R FOG     WCI  15
SALINA         PTSUNNY   27  20  75 N13       30.36R WCI  16
TOPEKA BILLARD CLOUDY    28  19  69 N9        30.35S
TOPEKA FORBES  LGT SNOW  28  21  75 N12       30.33S WCI  18
$$



USA.gov is the U.S. government's official web portal to all federal, state and local government web resources and services.